Location: Arborea
(39.7744°N, 8.5819°E)
Time: 04:19:01
(UTC+00:00)

FALCON 9 DEB - Pass Details

Date: 24 October 2021
Orbit: 337 x 349 km, 53.0° (Epoch: 29 November)

Event Time Altitude Azimuth Distance (km) Brightness Sun altitude
Rises 17:53:36 0° 222° (SW) 2,160 7.4 -16.0°
Reaches altitude 10° 17:55:36 10° 218° (SW) 1,326 6.1 -16.4°
Maximum altitude 17:58:32 62° 137° (SE) 411 2.7 -17.0°
Enters shadow 17:58:45 59° 111° (ESE) 422 2.7 -17.0°
